Regional Weather Roundup
Issued by NWS

Home | Current Version | Previous Version | Text Only | Print | Product List | Glossary On
Versions: 1 2 3 4 5 6 7 8 9 10 11 12 13 14 15 16 17 18 19 20 21 22 23 24 25 26 27 28 29 30 31 32 33 34 35 36 37 38 39 40 41 42 43 44 45 46 47 48 49 50
000
ASUS43 KDMX 261007
RWRIA

WEATHER ROUNDUP FOR IOWA
NATIONAL WEATHER SERVICE DES MOINES IA
400 AM CST WED NOV 26 2014

NOTE: "FAIR" INDICATES FEW OR NO CLOUDS BELOW 12,000 FEET WITH NO
SIGNIFICANT WEATHER AND/OR OBSTRUCTIONS TO VISIBILITY.

* - THESE STATIONS ARE NOT NWS STATIONS...THUS NOT UNDER NWS
QUALITY CONTROL.  THEY ALSO DO NOT REPORT WEATHER SUCH
AS PRECIPITATION OR FOG.

IAZ001>003-012>014-020>022-031>034-043>046-261100-
   NORTHWEST IOWA

CITY           SKY/WX    TMP DP  RH WIND       PRES   REMARKS
CARROLL *      CLOUDY    30  30 100 SE10      29.84F FOG     WCI  21
CHEROKEE *     CLOUDY    32  32 100 CALM      29.84S
DENISON *      LGT SNOW  32  32 100 S6G13     29.80S WCI  26
LE MARS *      CLOUDY    34  34 100 CALM      29.84S FOG
ORANGE CITY *  LGT SNOW  34  30  86 E5        29.83S WCI  30
SHELDON *      CLOUDY    28  28 100 E8        29.83S WCI  20
SIOUX CITY     CLOUDY    36  33  89 NW14      29.84S WCI  27
SPENCER        LGT SNOW  28  25  88 SE9       29.86S FOG     WCI  19
STORM LAKE *   CLOUDY    30  28  93 SE10      29.83S FOG     WCI  21
$$

IAZ055>058-069>071-079>083-090>094-261100-
   SOUTHWEST IOWA

CITY           SKY/WX    TMP DP  RH WIND       PRES   REMARKS
ATLANTIC *     LGT SNOW  34  32  93 S12       29.81F WCI  25
AUDUBON *      LGT SNOW  32  27  80 SE6       29.82F WCI  26
CLARINDA *     CLOUDY    34  34 100 S14G21    29.86F WCI  24
COUNCIL BLFS * CLOUDY    37  37 100 NW13      29.81S WCI  29
CRESTON *      LGT SNOW  30  30 100 S14G20    29.84F WCI  20
HARLAN  *      LGT SNOW  32  32 100 S5        29.84F WCI  27
LAMONI         LGT SNOW  30  28  92 S14       29.89F VSB 3/4 WCI  19
RED OAK *      CLOUDY    34  34 100 SW7       29.83F WCI  28
SHENANDOAH *   CLOUDY    39  36  87 W13G21    29.86S WCI  32
$$

IAZ047>049-059>061-072>074-084-261100-
   CENTRAL IOWA

CITY           SKY/WX    TMP DP  RH WIND       PRES   REMARKS
AMES           LGT SNOW  27  24  89 SE9       29.92F FOG     WCI  18
ANKENY *       LGT SNOW  28  27  93 SE8       29.92F WCI  20
CHARITON *     CLOUDY    32  23  69 SE9G16    29.91F WCI  24
DES MOINES     LGT SNOW  31  27  85 SE9       29.90F FOG     WCI  23
GRINNELL*      CLOUDY    27  21  80 E8        29.97F WCI  18
KNOXVILLE *    CLOUDY    30  19  64 SE7       29.93F WCI  23
MARSHALLTOWN   CLOUDY    26  20  77 SE12      29.96F WCI  16
PELLA *        CLOUDY    28  21  74 SE8       29.96F WCI  20
PERRY *        LGT SNOW  30  30 100 SE12      29.87F VSB 3/4 WCI  21
$$

IAZ004>006-015-016-023>025-035-036-261100-
   NORTH CENTRAL IOWA

CITY           SKY/WX    TMP DP  RH WIND       PRES   REMARKS
ALGONA *       LGT SNOW  27  27 100 SE16      29.88F WCI  14
CLARION *      SNOW      27  27 100 SE18      29.91F VSB 1/2 WCI  13
ESTHERVILLE    LGT SNOW  26  24  92 SE10      29.88S FOG     WCI  16
FORT DODGE *   CLOUDY    27  21  80 SE13      29.89F WCI  16
MASON CITY     CLOUDY    24  21  88 SE12      29.96F WCI  13
FOREST CITY *  LGT SNOW  27  27 100 SE13      29.93F WCI  16
IOWA FALLS *   FLURRIES  27  23  86 E13       29.95F WCI  16
$$

IAZ007>011-017>019-026>030-037>042-050>054-066-261100-
   NORTHEAST IOWA

CITY           SKY/WX    TMP DP  RH WIND       PRES   REMARKS
CEDAR RAPIDS   MOCLDY    22  20  92 SE8       30.02F WCI  12
CHARLES CITY * MIX PCPN  23  19  86 SE12      30.01S WCI  12
CLINTON *      MOCLDY    14  12  92 E9        30.11F WCI   2
DECORAH *      CLOUDY    19  16  86 VRB5      30.03S WCI  13
DUBUQUE          N/A     16  14  92 SE12      30.06F WCI   3
MONTICELLO *   CLEAR     19  18  93 SE9       30.06S WCI   9
OELWEIN *      CLOUDY    23  19  86 SE10      30.01F WCI  12
WATERLOO       CLOUDY    24  19  81 E6        30.02R WCI  17
$$

IAZ064-065-067-068-078-261100-
   EAST CENTRAL IOWA

CITY           SKY/WX    TMP DP  RH WIND       PRES   REMARKS
DAVENPORT      MOCLDY    17  14  88 E8        30.08F WCI   7
IOWA CITY      MOCLDY    22  20  92 SE7       30.05F WCI  13
MT. PLEASANT * MOCLDY    25  21  86 SE8       30.03F WCI  16
MUSCATINE *    PTCLDY    21  19  93 E5        30.07F WCI  15
QUAD CITIES    MOCLDY    17  13  84 E7        30.08F WCI   8
$$

IAZ062-063-075>077-085>089-095>099-261100-
   SOUTHEAST IOWA

CITY           SKY/WX    TMP DP  RH WIND       PRES   REMARKS
BURLINGTON     PTCLDY    25  22  88 SE5       30.05F WCI  19
FAIRFIELD *    CLOUDY    27  21  80 SE9       30.01F WCI  17
FORT MADISON * PTCLDY    28  25  86 SE3       30.05F
KEOKUK *       MOCLDY    28  23  80 SE7       30.03F WCI  21
OSKALOOSA *    MOCLDY    27  23  86 SE9       29.99F WCI  17
CENTERVILLE *  CLEAR     30  19  64 SE7       29.96F WCI  23
OTTUMWA        CLOUDY    28  19  69 SE10      29.98F WCI  19
WASHINGTON *   MOCLDY    23  23 100 E7        30.03S WCI  15
$$

ABBREVIATIONS USED IN REMARKS
   TC - TEMPERATURES IN CELSIUS
  WCI - WIND CHILL INDEX
   HX - HEAT INDEX
  VSB - VISIBILITY
$$



USA.gov is the U.S. government's official web portal to all federal, state and local government web resources and services.